Tracking 19572 objects as of 24-Feb-2019
HD Live streaming from Space Station
objects crossing your sky now

USA 7

Track USA 7 now!
USA 7 is classified as:


NORAD ID: 15453
Int'l Code: 1984-129A
Perigee: 36,176.5 km
Apogee: 36,216.7 km
Inclination: 15.5 °
Period: 1,456.7 minutes
Semi major axis: 42567 km
RCS: Unknown
Launch date: December 22, 1984
Source: United States (US)
Launch site: AIR FORCE EASTERN TEST RANGE (AFETR)
aabbcc
Your satellite tracking list
Your tracking list is empty




NASA's NSSDC Master Catalog

Two Line Element Set (TLE):
1 15453U 84129A   18359.01156010 0.00000000  00000-0  00000-0 0    05
2 15453  15.4964 345.0324 0004725 289.5922  70.3689  0.98851735    04
Source of the keplerian elements: McCants